Regional Weather Roundup
Issued by NWS

Home | Current Version | Previous Version | Graphics & Text | Print | Product List | Glossary Off
Versions: 1 2 3 4 5 6 7 8 9 10 11 12 13 14 15 16 17 18 19 20 21 22 23 24 25 26 27 28 29 30 31 32 33 34 35 36 37 38 39 40 41 42 43 44 45 46 47 48

000
ASUS45 KCYS 260510
RWRWY

WYOMING REGIONAL WEATHER ROUNDUP
NATIONAL WEATHER SERVICE CHEYENNE WY
1000 PM MST THU DEC 25 2014

NOTE:  "FAIR" INDICATES FEW OR NO CLOUDS BELOW 12,000 FEET
WITH NO SIGNIFICANT WEATHER AND/OR OBSTRUCTIONS TO VISIBILITY.

WYZ001-260600-
YELLOWSTONE NATIONAL PARK

CITY           SKY/WX    TMP DP  RH WIND       PRES   REMARKS
LK YELLOWSTONE   N/A      6   1  80 CALM      29.81R
W YELLOWSTONE  NOT AVBL

$$
WYZ002>013-054>058-071-098>099-260600-
NORTHERN WYOMING

CITY           SKY/WX    TMP DP  RH WIND       PRES   REMARKS
JACKSON        CLOUDY    16  10  79 N17       29.78R WCI   0
CODY           CLOUDY    19  16  86 N6        29.91R WCI  11
GREYBULL       CLOUDY    21  14  74 S6        29.94R WCI  13
WORLAND        LGT SNOW  20  17  88 W8        29.95R FOG     WCI  10
SHERIDAN       CLOUDY    20  16  84 W6        29.99R WCI  12
BUFFALO        CLOUDY    17  15  92 N8        29.94R WCI   7
GILLETTE       CLOUDY    18  15  88 N10       29.96R WCI   6
HULETT           N/A    N/A N/A N/A MISG        N/A
NEWCASTLE      FAIR      21  14  73 NW14      29.93S WCI   8

$$
WYZ014>020-022>026-101>103-260600-
CENTRAL WYOMING

CITY           SKY/WX    TMP DP  RH WIND       PRES   REMARKS
BIG PINEY      CLOUDY    13  10  88 SW3       29.75R
PINEDALE       CLOUDY     9   7  92 W5        29.75R WCI   0
DUBOIS         NOT AVBL
LANDER         LGT SNOW  19  16  88 VRB3      29.87R FOG
RIVERTON       FLURRIES  18  15  88 E5        29.88R WCI  11
CASPER         LGT SNOW  17  13  84 NE8       29.89S FOG     WCI   7
DOUGLAS        LGT SNOW  18  15  88 MISG      29.92S FOG

$$
WYZ021-027>030-104>119-260600-
SOUTHERN WYOMING

CITY           SKY/WX    TMP DP  RH WIND       PRES   REMARKS
EVANSTON       CLOUDY    17  12  80 E14G23    29.72R WCI   3
FORT BRIDGER   LGT SNOW  17  16  96 E6        29.77S WCI   8
ROCK SPRINGS   LGT SNOW  15  10  80 NE24G35   29.73R WCI  -4
DIXON          CLOUDY    22  17  81 NE5       29.65R WCI  16
RAWLINS        LGT SNOW  15  11  83 NE18      29.74F FOG     WCI  -2
SARATOGA       FLURRIES  19  14  79 S5        29.71R WCI  13
LARAMIE        LGT SNOW  14  10  84 NE5       29.75R VSB 3/4 WCI   6
CHEYENNE       FOG       16  12  84 NE12      29.82R VSB 3/4 WCI   3
TORRINGTON     LGT SNOW  21  19  92 N3        29.91R FOG
PINE BLUFFS    CLOUDY    19  18  93 N12       29.87R WCI   7

$$



USA.gov is the U.S. government's official web portal to all federal, state and local government web resources and services.